| time (UTC) | temp F | wind direction | speed knots | gust knots | rain 1hr in | rain 24hr in | rain mn in | humidity % | barometer mb |
| 20260507205552 | 61 | 202 | 0.0 | 0.0 | 0.03 | 0.35 | 0.35 | 95 | 1015.1 |
| 20260507204522 | 61 | 202 | 0.0 | 0.0 | 0.04 | 0.35 | 0.35 | 95 | 1016.0 |
| 20260507203452 | 61 | 202 | 0.0 | 0.0 | 0.05 | 0.35 | 0.35 | 95 | 1015.0 |
| 20260507202452 | 61 | 202 | 0.0 | 0.0 | 0.05 | 0.35 | 0.35 | 95 | 1016.0 |
| 20260507201422 | 61 | 202 | 0.0 | 0.0 | 0.06 | 0.34 | 0.34 | 95 | 1016.0 |
| 20260507200352 | 62 | 202 | 0.0 | 0.0 | 0.06 | 0.33 | 0.33 | 94 | 1016.0 |
| 20260507195322 | 62 | 202 | 0.0 | 0.0 | 0.06 | 0.32 | 0.32 | 94 | 1016.0 |
| 20260507194252 | 62 | 202 | 0.0 | 0.0 | 0.05 | 0.31 | 0.31 | 94 | 1016.0 |
| 20260507193222 | 62 | 202 | 0.0 | 0.0 | 0.04 | 0.30 | 0.30 | 94 | 1016.0 |
| 20260507192152 | 62 | 202 | 0.0 | 0.0 | 0.02 | 0.29 | 0.29 | 94 | 1015.0 |
| 20260507191122 | 62 | 225 | 0.0 | 0.0 | 0.02 | 0.28 | 0.28 | 94 | 1015.0 |
| 20260507190052 | 62 | 202 | 0.0 | 0.0 | 0.00 | 0.26 | 0.26 | 94 | 1015.0 |
| 20260507185021 | 62 | 180 | 0.0 | 0.0 | 0.00 | 0.26 | 0.26 | 93 | 1015.0 |
| 20260507183951 | 62 | 158 | 0.0 | 0.0 | 0.00 | 0.26 | 0.26 | 93 | 1014.0 |
| 20260507182921 | 62 | 158 | 0.0 | 0.0 | 0.00 | 0.26 | 0.26 | 93 | 1014.0 |
| 20260507181851 | 62 | 158 | 0.0 | 0.0 | 0.00 | 0.26 | 0.26 | 93 | 1014.0 |
| 20260507180851 | 62 | 158 | 0.0 | 0.0 | 0.00 | 0.26 | 0.26 | 93 | 1015.0 |
| 20260507175651 | 62 | 158 | 0.0 | 0.0 | 0.00 | 0.26 | 0.26 | 93 | 1015.0 |
| 20260507174651 | 62 | 143 | 0.0 | 0.0 | 0.00 | 0.26 | 0.26 | 93 | 1014.0 |
| 20260507173651 | 62 | 158 | 0.0 | 0.0 | 0.00 | 0.26 | 0.26 | 93 | 1014.0 |
| 20260507172651 | 62 | 158 | 0.0 | 0.0 | 0.00 | 0.26 | 0.26 | 93 | 1014.0 |
| 20260507171651 | 63 | 158 | 0.0 | 0.0 | 0.00 | 0.26 | 0.26 | 92 | 1014.0 |
| 20260507170552 | 63 | 158 | 0.0 | 0.0 | 0.00 | 0.26 | 0.26 | 92 | 1015.0 |
| 20260507165552 | 63 | 158 | 0.0 | 0.0 | 0.00 | 0.26 | 0.26 | 92 | 1014.9 |
| 20260507164551 | 63 | 158 | 0.0 | 0.0 | 0.00 | 0.26 | 0.26 | 92 | 1014.0 |
| 20260507163521 | 63 | 158 | 0.0 | 0.0 | 0.00 | 0.26 | 0.26 | 92 | 1013.0 |
| 20260507162521 | 63 | 248 | 0.0 | 0.0 | 0.00 | 0.26 | 0.26 | 92 | 1013.1 |
| 20260507161521 | 63 | 248 | 0.0 | 0.0 | 0.00 | 0.26 | 0.26 | 92 | 1014.0 |
| 20260507160521 | 63 | 248 | 0.0 | 0.0 | 0.00 | 0.26 | 0.26 | 92 | 1014.0 |
| 20260507155521 | 63 | 248 | 0.0 | 0.0 | 0.00 | 0.26 | 0.26 | 92 | 1014.0 |
| 20260507154521 | 63 | 247 | 0.0 | 0.0 | 0.00 | 0.26 | 0.26 | 93 | 1014.0 |
| 20260507153451 | 63 | 186 | 0.0 | 0.0 | 0.00 | 0.26 | 0.26 | 93 | 1014.0 |
| 20260507152451 | 63 | 180 | 0.0 | 0.0 | 0.00 | 0.26 | 0.26 | 93 | 1014.0 |
| 20260507151451 | 63 | 158 | 0.0 | 0.0 | 0.00 | 0.26 | 0.26 | 93 | 1014.0 |
| 20260507150451 | 63 | 171 | 0.0 | 0.0 | 0.00 | 0.26 | 0.26 | 93 | 1015.0 |
| 20260507145421 | 63 | 158 | 0.0 | 0.0 | 0.00 | 0.26 | 0.26 | 93 | 1014.0 |
| 20260507144351 | 63 | 158 | 0.0 | 0.0 | 0.00 | 0.26 | 0.26 | 93 | 1014.0 |
| 20260507143321 | 63 | 158 | 0.0 | 0.0 | 0.00 | 0.26 | 0.26 | 93 | 1015.0 |
| 20260507142321 | 63 | 158 | 0.0 | 0.0 | 0.01 | 0.26 | 0.26 | 93 | 1015.0 |
| 20260507141251 | 63 | 158 | 0.0 | 0.0 | 0.03 | 0.26 | 0.26 | 92 | 1015.0 |
| 20260507140251 | 63 | 161 | 0.0 | 0.0 | 0.03 | 0.26 | 0.26 | 92 | 1015.0 |
| 20260507135221 | 63 | 153 | 0.0 | 0.0 | 0.03 | 0.26 | 0.26 | 91 | 1014.0 |
| 20260507134151 | 64 | 195 | 0.0 | 0.0 | 0.03 | 0.26 | 0.26 | 91 | 1014.0 |
| 20260507133151 | 64 | 143 | 0.0 | 0.0 | 0.03 | 0.26 | 0.26 | 90 | 1014.0 |
| 20260507132121 | 65 | 121 | 0.0 | 0.0 | 0.01 | 0.24 | 0.24 | 88 | 1014.0 |
| 20260507131121 | 65 | 158 | 0.0 | 0.0 | 0.00 | 0.23 | 0.23 | 88 | 1014.0 |
| 20260507130121 | 64 | 158 | 0.0 | 0.0 | 0.00 | 0.23 | 0.23 | 88 | 1015.0 |
| 20260507125051 | 64 | 202 | 0.0 | 0.0 | 0.00 | 0.23 | 0.23 | 88 | 1014.0 |
| 20260507124051 | 64 | 163 | 0.0 | 0.0 | 0.02 | 0.23 | 0.23 | 88 | 1014.0 |
| 20260507123051 | 63 | 147 | 0.0 | 0.0 | 0.03 | 0.23 | 0.23 | 87 | 1014.0 |
| 20260507122051 | 63 | 158 | 0.0 | 0.0 | 0.05 | 0.23 | 0.23 | 86 | 1014.0 |
| 20260507121051 | 63 | 158 | 0.0 | 0.0 | 0.08 | 0.23 | 0.23 | 86 | 1014.1 |
| 20260507120021 | 64 | 188 | 0.0 | 0.0 | 0.08 | 0.23 | 0.23 | 86 | 1015.0 |
| 20260507115021 | 64 | 183 | 0.0 | 0.0 | 0.08 | 0.22 | 0.22 | 86 | 1014.0 |
| 20260507113951 | 64 | 231 | 0.0 | 0.0 | 0.06 | 0.20 | 0.20 | 83 | 1014.0 |
| 20260507112921 | 64 | 158 | 0.0 | 0.0 | 0.15 | 0.19 | 0.19 | 83 | 1014.0 |
| 20260507111921 | 64 | 212 | 0.0 | 0.0 | 0.13 | 0.17 | 0.17 | 83 | 1014.0 |
| 20260507110920 | 64 | 158 | 0.0 | 0.0 | 0.12 | 0.14 | 0.14 | 82 | 1014.0 |
| 20260507105850 | 64 | 248 | 0.0 | 0.0 | 0.14 | 0.14 | 0.14 | 80 | 1014.0 |
| 20260507104820 | 65 | 255 | 0.0 | 0.0 | 0.14 | 0.14 | 0.14 | 77 | 1013.0 |
| 20260507103820 | 66 | 292 | 0.0 | 0.0 | 0.14 | 0.14 | 0.14 | 77 | 1014.0 |
| 20260507102820 | 68 | 253 | 0.0 | 0.0 | 0.04 | 0.04 | 0.04 | 74 | 1014.0 |
| 20260507101750 | 69 | 334 | 0.0 | 0.0 | 0.03 | 0.03 | 0.03 | 69 | 1015.0 |
| 20260507100720 | 72 | 277 | 0.0 | 0.0 | 0.01 | 0.01 | 0.01 | 59 | 1015.0 |
| 20260507095720 | 74 | 170 | 0.0 | 0.0 | 0.00 | 0.00 | 0.00 | 57 | 1015.0 |
| 20260507094720 | 73 | 172 | 0.0 | 0.0 | 0.00 | 0.00 | 0.00 | 60 | 1014.0 |
| 20260507093620 | 73 | 168 | 0.0 | 0.0 | 0.00 | 0.00 | 0.00 | 60 | 1014.0 |
| 20260507092550 | 72 | 178 | 0.0 | 0.0 | 0.00 | 0.00 | 0.00 | 63 | 1014.0 |
| 20260507091550 | 71 | 158 | 0.0 | 0.0 | 0.00 | 0.00 | 0.00 | 65 | 1014.0 |
| 20260507090520 | 70 | 158 | 0.0 | 0.0 | 0.00 | 0.00 | 0.00 | 66 | 1014.0 |
| 20260507085520 | 69 | 206 | 0.0 | 0.0 | 0.00 | 0.00 | 0.00 | 67 | 1014.1 |
| 20260507084520 | 68 | 192 | 0.0 | 0.0 | 0.00 | 0.00 | 0.00 | 72 | 1015.0 |
| 20260507083520 | 67 | 204 | 0.0 | 0.0 | 0.00 | 0.00 | 0.00 | 73 | 1014.0 |
| 20260507082450 | 66 | 157 | 0.0 | 0.0 | 0.00 | 0.00 | 0.00 | 73 | 1015.0 |
| 20260507081420 | 66 | 180 | 0.0 | 0.0 | 0.00 | 0.00 | 0.00 | 73 | 1015.0 |
| 20260507080420 | 66 | 192 | 0.0 | 0.0 | 0.00 | 0.00 | 0.00 | 73 | 1014.0 |
| 20260507075350 | 67 | 228 | 0.0 | 0.0 | 0.00 | 0.00 | 0.00 | 72 | 1014.0 |
| 20260507074350 | 67 | 195 | 0.0 | 0.0 | 0.00 | 0.00 | 0.00 | 74 | 1014.0 |
| 20260507073320 | 66 | 182 | 0.0 | 0.0 | 0.00 | 0.00 | 0.00 | 76 | 1014.0 |
| 20260507072320 | 66 | 168 | 0.0 | 0.0 | 0.00 | 0.00 | 0.00 | 79 | 1014.0 |
| 20260507071320 | 66 | 165 | 0.0 | 0.0 | 0.00 | 0.00 | 0.00 | 83 | 1014.0 |
| 20260507070320 | 65 | 204 | 0.0 | 0.0 | 0.00 | 0.00 | 0.00 | 85 | 1014.0 |
| 20260507065250 | 64 | 186 | 0.0 | 0.0 | 0.00 | 0.00 | 0.00 | 88 | 1014.0 |
| 20260507064220 | 63 | 191 | 0.0 | 0.0 | 0.00 | 0.00 | 0.00 | 88 | 1014.0 |
| 20260507063220 | 62 | 181 | 0.0 | 0.0 | 0.00 | 0.00 | 0.00 | 89 | 1014.0 |
| 20260507062220 | 62 | 173 | 0.0 | 0.0 | 0.00 | 0.00 | 0.00 | 89 | 1014.0 |
| 20260507061150 | 62 | 186 | 0.0 | 0.0 | 0.00 | 0.00 | 0.00 | 89 | 1014.0 |
| 20260507060150 | 62 | 155 | 0.0 | 0.0 | 0.00 | 0.00 | 0.00 | 88 | 1014.0 |
| 20260507055120 | 61 | 143 | 0.0 | 0.0 | 0.00 | 0.00 | 0.00 | 88 | 1013.0 |
| 20260507054050 | 61 | 154 | 0.0 | 0.0 | 0.00 | 0.00 | 0.00 | 88 | 1013.0 |
| 20260507053050 | 61 | 167 | 0.0 | 0.0 | 0.00 | 0.00 | 0.00 | 87 | 1013.0 |
| 20260507052050 | 61 | 158 | 0.0 | 0.0 | 0.00 | 0.00 | 0.00 | 86 | 1013.0 |
| 20260507051020 | 61 | 158 | 0.0 | 0.0 | 0.00 | 0.00 | 0.00 | 86 | 1013.0 |
| 20260507045950 | 61 | 157 | 0.0 | 0.0 | 0.00 | 0.00 | 0.00 | 86 | 1013.0 |
| 20260507044920 | 61 | 158 | 0.0 | 0.0 | 0.00 | 0.00 | 0.00 | 86 | 1013.0 |
| 20260507043850 | 61 | 152 | 0.0 | 0.0 | 0.00 | 0.00 | 0.00 | 85 | 1013.0 |
| 20260507042820 | 61 | 158 | 0.0 | 0.0 | 0.00 | 0.00 | 0.00 | 85 | 1013.0 |
| 20260507041750 | 61 | 158 | 0.0 | 0.0 | 0.00 | 0.00 | 0.00 | 85 | 1013.0 |
| 20260507040750 | 61 | 158 | 0.0 | 0.0 | 0.00 | 0.00 | 0.00 | 84 | 1012.0 |
| 20260507035720 | 61 | 158 | 0.0 | 0.0 | 0.00 | 0.00 | 0.00 | 83 | 1012.0 |
| 20260507034650 | 61 | 158 | 0.0 | 0.0 | 0.00 | 0.00 | 0.00 | 83 | 1012.0 |
| 20260507033649 | 61 | 158 | 0.0 | 0.0 | 0.00 | 0.00 | 0.00 | 83 | 1012.0 |
| 20260507032649 | 61 | 158 | 0.0 | 0.0 | 0.00 | 0.00 | 0.00 | 82 | 1012.0 |
| 20260507031649 | 61 | 217 | 0.0 | 0.0 | 0.00 | 0.00 | 0.00 | 82 | 1012.0 |
| 20260507030619 | 61 | 229 | 0.0 | 0.0 | 0.00 | 0.00 | 0.00 | 82 | 1012.0 |
| 20260507025619 | 62 | 207 | 0.0 | 0.0 | 0.00 | 0.00 | 0.00 | 82 | 1012.0 |
| 20260507024549 | 62 | 241 | 0.0 | 0.0 | 0.00 | 0.00 | 0.00 | 83 | 1012.0 |
| 20260507023549 | 62 | 221 | 0.0 | 0.0 | 0.00 | 0.00 | 0.00 | 83 | 1012.0 |
| 20260507022549 | 62 | 181 | 0.0 | 0.0 | 0.00 | 0.00 | 0.00 | 83 | 1012.0 |
| 20260507021549 | 62 | 222 | 0.0 | 0.0 | 0.00 | 0.00 | 0.00 | 83 | 1012.0 |
| 20260507020449 | 62 | 220 | 0.0 | 0.0 | 0.00 | 0.00 | 0.00 | 83 | 1012.0 |
| 20260507015449 | 62 | 208 | 0.0 | 0.0 | 0.00 | 0.00 | 0.00 | 83 | 1012.0 |
| 20260507014449 | 62 | 235 | 0.0 | 0.0 | 0.00 | 0.00 | 0.00 | 83 | 1012.0 |
| 20260507013419 | 63 | 234 | 0.0 | 0.0 | 0.00 | 0.00 | 0.00 | 82 | 1012.0 |
| 20260507012349 | 63 | 258 | 0.0 | 0.0 | 0.00 | 0.00 | 0.00 | 81 | 1012.0 |
| 20260507011319 | 63 | 259 | 0.0 | 0.0 | 0.00 | 0.00 | 0.00 | 80 | 1012.0 |
| 20260507010319 | 63 | 288 | 0.0 | 0.0 | 0.00 | 0.00 | 0.00 | 79 | 1011.0 |
| 20260507005319 | 63 | 298 | 0.0 | 0.0 | 0.00 | 0.00 | 0.00 | 80 | 1011.0 |
| 20260507004249 | 64 | 274 | 0.0 | 0.0 | 0.00 | 0.00 | 0.00 | 80 | 1011.0 |
| 20260507003249 | 64 | 275 | 0.0 | 0.0 | 0.00 | 0.00 | 0.00 | 76 | 1012.0 |
| 20260507002219 | 64 | 300 | 0.0 | 0.0 | 0.00 | 0.00 | 0.00 | 75 | 1012.0 |
| 20260507001149 | 65 | 264 | 0.0 | 0.0 | 0.00 | 0.00 | 0.00 | 74 | 1012.0 |
| 20260507000149 | 65 | 275 | 0.0 | 0.0 | 0.00 | 0.00 | 0.00 | 72 | 1011.0 |
| 20260506235119 | 65 | 294 | 0.0 | 0.0 | 0.00 | 0.00 | 0.00 | 71 | 1012.0 |
| 20260506234119 | 65 | 281 | 0.0 | 0.0 | 0.00 | 0.00 | 0.00 | 71 | 1012.0 |
| 20260506233119 | 65 | 272 | 0.0 | 0.0 | 0.00 | 0.00 | 0.00 | 71 | 1012.0 |
| 20260506232049 | 65 | 281 | 0.0 | 0.0 | 0.00 | 0.00 | 0.00 | 71 | 1012.0 |
| 20260506231049 | 65 | 252 | 0.0 | 0.0 | 0.00 | 0.00 | 0.00 | 70 | 1012.0 |
| 20260506230049 | 65 | 259 | 0.0 | 0.0 | 0.00 | 0.00 | 0.00 | 69 | 1012.0 |
| 20260506225019 | 65 | 254 | 0.0 | 0.0 | 0.00 | 0.00 | 0.00 | 68 | 1012.0 |
| 20260506223949 | 65 | 251 | 0.0 | 0.0 | 0.00 | 0.00 | 0.00 | 67 | 1012.0 |
| 20260506222919 | 65 | 261 | 0.0 | 0.0 | 0.00 | 0.00 | 0.00 | 65 | 1012.0 |
| 20260506221919 | 65 | 246 | 0.0 | 0.0 | 0.00 | 0.00 | 0.00 | 63 | 1012.0 |
| 20260506220919 | 65 | 257 | 0.0 | 0.0 | 0.00 | 0.00 | 0.00 | 64 | 1012.0 |
| 20260506215849 | 66 | 245 | 0.0 | 0.0 | 0.00 | 0.00 | 0.00 | 63 | 1012.0 |
| 20260506214849 | 66 | 253 | 0.0 | 0.0 | 0.00 | 0.00 | 0.00 | 62 | 1011.0 |
| 20260506213819 | 66 | 289 | 0.0 | 0.0 | 0.00 | 0.00 | 0.00 | 60 | 1011.0 |
| 20260506212749 | 66 | 273 | 0.0 | 0.0 | 0.00 | 0.00 | 0.00 | 59 | 1011.0 |
| 20260506211749 | 67 | 269 | 0.0 | 0.0 | 0.00 | 0.00 | 0.00 | 57 | 1011.0 |
| 20260506210719 | 67 | 280 | 0.0 | 0.0 | 0.00 | 0.00 | 0.00 | 57 | 1011.0 |